TimeCST,TemperatureF,Dew PointF,Humidity,Sea Level PressureIn,VisibilityMPH,Wind Direction,Wind SpeedMPH,Gust SpeedMPH,PrecipitationIn,Events,Conditions,WindDirDegrees,DateUTC
12:56 AM,23.0,18.0,81,29.74,10.0,Calm,Calm,-,N/A,,Overcast,0,2012-12-18 06:56:00
1:56 AM,21.9,18.0,85,29.74,10.0,SE,3.5,-,N/A,,Overcast,130,2012-12-18 07:56:00
2:56 AM,19.9,17.1,89,29.74,10.0,ENE,3.5,-,N/A,,Overcast,60,2012-12-18 08:56:00
3:56 AM,19.9,16.0,85,29.72,10.0,Calm,Calm,-,N/A,,Scattered Clouds,0,2012-12-18 09:56:00
4:10 AM,17.6,15.8,93,29.68,9.0,Calm,Calm,-,N/A,,Mostly Cloudy,0,2012-12-18 10:10:00
4:56 AM,17.1,15.1,92,29.72,8.0,ENE,4.6,-,N/A,,Mostly Cloudy,60,2012-12-18 10:56:00
5:10 AM,17.6,15.8,93,29.67,8.0,Calm,Calm,-,N/A,,Mostly Cloudy,0,2012-12-18 11:10:00
5:56 AM,18.0,15.1,88,29.72,9.0,Calm,Calm,-,N/A,,Overcast,0,2012-12-18 11:56:00
6:56 AM,21.0,18.0,88,29.71,10.0,Variable,4.6,-,N/A,,Overcast,0,2012-12-18 12:56:00
7:56 AM,21.9,19.9,92,29.71,7.0,ESE,6.9,-,N/A,,Overcast,110,2012-12-18 13:56:00
8:56 AM,21.9,19.9,92,29.71,7.0,ESE,8.1,-,N/A,,Overcast,110,2012-12-18 14:56:00
9:56 AM,23.0,19.9,88,29.71,9.0,East,8.1,-,N/A,,Overcast,90,2012-12-18 15:56:00
10:56 AM,24.1,19.9,84,29.72,10.0,SSE,6.9,-,N/A,,Overcast,150,2012-12-18 16:56:00
11:38 AM,24.8,19.4,80,29.66,10.0,ESE,3.5,-,N/A,,Overcast,120,2012-12-18 17:38:00
11:56 AM,26.1,19.9,78,29.70,10.0,ENE,6.9,-,N/A,,Overcast,60,2012-12-18 17:56:00
12:56 PM,25.0,19.9,81,29.69,10.0,East,5.8,-,N/A,,Mostly Cloudy,90,2012-12-18 18:56:00
1:09 PM,26.6,19.4,74,29.65,10.0,East,5.8,-,N/A,,Scattered Clouds,100,2012-12-18 19:09:00
1:56 PM,26.1,19.9,78,29.70,10.0,Calm,Calm,-,N/A,,Scattered Clouds,0,2012-12-18 19:56:00
2:56 PM,27.0,19.9,75,29.71,10.0,Calm,Calm,-,N/A,,Clear,0,2012-12-18 20:56:00
3:56 PM,26.1,19.9,78,29.73,10.0,Calm,Calm,-,N/A,,Scattered Clouds,0,2012-12-18 21:56:00
4:56 PM,24.1,19.0,81,29.74,10.0,Calm,Calm,-,N/A,,Overcast,0,2012-12-18 22:56:00
5:56 PM,19.9,16.0,85,29.77,10.0,WSW,3.5,-,N/A,,Partly Cloudy,240,2012-12-18 23:56:00
6:56 PM,19.9,17.1,89,29.80,9.0,Calm,Calm,-,N/A,,Partly Cloudy,0,2012-12-19 00:56:00
7:53 PM,21.2,17.6,86,29.78,8.0,SW,3.5,-,N/A,,Overcast,230,2012-12-19 01:53:00
7:56 PM,21.0,18.0,88,29.83,9.0,Calm,Calm,-,N/A,,Overcast,0,2012-12-19 01:56:00
8:05 PM,21.2,17.6,86,29.78,9.0,SW,3.5,-,N/A,,Overcast,220,2012-12-19 02:05:00
8:13 PM,21.2,17.6,86,29.78,9.0,SSW,3.5,-,N/A,,Overcast,200,2012-12-19 02:13:00
8:56 PM,21.0,19.0,92,29.82,8.0,Calm,Calm,-,N/A,,Overcast,0,2012-12-19 02:56:00
9:56 PM,21.9,19.0,89,29.83,8.0,Calm,Calm,-,N/A,,Overcast,0,2012-12-19 03:56:00
10:56 PM,24.1,21.0,88,29.84,8.0,Calm,Calm,-,N/A,,Overcast,0,2012-12-19 04:56:00
11:56 PM,25.0,21.9,88,29.86,8.0,SSW,3.5,-,N/A,,Overcast,210,2012-12-19 05:56:00